Showing default

VINDLER 2.2, 68484

Orbit data source: Space-Track

VINDLER 2.2, 68484 is a payload satellite owned by Sierra Nevada (US) in SSO that was launched on Mon, 30 Mar 2026 UTC via an FALCON 9 launch vehicle from the Air Force Western Test Range (AFWTR). Payload-class satellites include a variety of spacecraft equipped with specific instruments for various scientific and technological missions. These include communications satellites like Starlink; space stations such as the ISS; scientific satellites like the Hubble; Earth observation satellites from companies like Planet Labs, Umbra, and HawkEye 360; GPS; miniature CubeSats for education and research; and military/defense satellites.

Loading next visibility...
Identifier
68484, 2026-067BW
Orbit
SSO
Country
Flag of USUS
Related business
Manufacturer
Muon Space
Mission
Operational Commercial Sigint
Bus & Motor
MUON HALO, Unknown motor
Mass
~130 kg wet, ~130 kg dry
Launch date (UTC)
2026-03-30 (5 months ago)
Launch vehicle
FALCON 9
Launch site
Air Force Western Test Range (AFWTR)
Object type
Payload
Rocket body
Debris
Shape & HBR
Box + 2 Pan, 2.5 m
Radar Cross Section
2.173 m², Large (>1 m²)

Expand to show TLE details & history
Last TLE update: 12 hours ago

TLE from 12 hours ago
0 VINDLER 2.2
1 68484U 26067BW  26228.60006551  .00000481  00000-0  52834-4 0  9993
2 68484  97.7704 186.8267 0002849 112.7682 247.3838 14.92128740 20784
Epoch: 2026-08-16T14:24Z
TLE epoch observation values (Epoch: 2026-08-16T14:24:05.660Z)
Latitude
-0.00001°
Longitude
5.80885°
Altitude
595.105 km
Speed
7.562 km/s
True Right ascension
12h 27m 18s
True Declination
0° 00' 00"
Sunlit
Object was in daylight at epoch
Visualization orbit readout
Latitude
Unknown
Longitude
Unknown
Altitude
Unknown
Speed
Unknown
Apparent Right ascension
Unknown
Apparent Declination
Unknown
Sunlit
N/A
Visualization observer readout
Local Sidereal Time
16:59:18
Azimuth
Unknown
Elevation
Unknown
Doppler factor
Unknown
Orbital elements
Apogee altitude
590.303 km
Perigee altitude
586.333 km
Semi-major axis
6,966.455 km
Eccentricity
0.00028
Inclination
97.7704°
RAAN
186.8267°
Arg. of periapsis
112.7682°
True anomaly
247.35367°
Mean anomaly
247.3838°
Eccentric anomaly
247.36873°
Mean motion
3.73272 °/min
Orbital period
96.44 mins
BSTAR
0.000052834
Loading maneuver chart data...
Computing Atmospheric mass density...
Loading historical data...
Loading historical data...
Loading historical data...
Loading historical data...
Loading historical data...
Loading historical data...
Loading historical data...

Documentation

Showing up to 5 results
|